| time (UTC) | temp F | wind direction | speed MPH | gust MPH | rain 1hr in | rain 24hr in | rain mn in | humidity % | barometer mb |
| 20260906051531 | 86 | 292 | 3.0 | 5.0 | 0.00 | 0.00 | 0.00 | 40 | 1015.3 |
| 20260906051025 | 87 | 293 | 2.0 | 5.0 | 0.00 | 0.00 | 0.00 | 40 | 1015.3 |
| 20260906050523 | 87 | 294 | 3.0 | 5.0 | 0.00 | 0.00 | 0.00 | 40 | 1015.3 |
| 20260906050030 | 87 | 295 | 3.0 | 4.0 | 0.00 | 0.00 | 0.00 | 40 | 1015.4 |
| 20260906045529 | 87 | 296 | 3.0 | 4.0 | 0.00 | 0.00 | 0.00 | 40 | 1015.3 |
| 20260906045024 | 87 | 297 | 2.0 | 5.0 | 0.00 | 0.00 | 0.00 | 40 | 1015.3 |
| 20260906044518 | 87 | 297 | 3.0 | 5.0 | 0.00 | 0.00 | 0.00 | 41 | 1015.4 |
| 20260906044013 | 87 | 323 | 3.0 | 5.0 | 0.00 | 0.00 | 0.00 | 42 | 1015.3 |
| 20260906043528 | 87 | 323 | 1.0 | 5.0 | 0.00 | 0.00 | 0.00 | 42 | 1015.2 |
| 20260906043023 | 87 | 323 | 2.0 | 5.0 | 0.00 | 0.00 | 0.00 | 42 | 1015.3 |
| 20260906042522 | 86 | 325 | 3.0 | 5.0 | 0.00 | 0.00 | 0.00 | 43 | 1015.3 |
| 20260906042016 | 86 | 326 | 2.0 | 5.0 | 0.00 | 0.00 | 0.00 | 43 | 1015.2 |
| 20260906041529 | 86 | 326 | 2.0 | 5.0 | 0.00 | 0.00 | 0.00 | 44 | 1015.2 |
| 20260906041023 | 87 | 326 | 2.0 | 4.0 | 0.00 | 0.00 | 0.00 | 43 | 1015.1 |
| 20260906040518 | 87 | 326 | 3.0 | 4.0 | 0.00 | 0.00 | 0.00 | 42 | 1015.1 |
| 20260906040045 | 87 | 326 | 2.0 | 4.0 | 0.00 | 0.00 | 0.00 | 42 | 1015.1 |
| 20260906035525 | 87 | 326 | 1.0 | 3.0 | 0.00 | 0.00 | 0.00 | 42 | 1015.1 |
| 20260906035023 | 87 | 326 | 2.0 | 4.0 | 0.00 | 0.00 | 0.00 | 42 | 1015.1 |
| 20260906034517 | 87 | 326 | 0.0 | 1.0 | 0.00 | 0.00 | 0.00 | 42 | 1015.1 |
| 20260906034031 | 87 | 326 | 0.0 | 2.0 | 0.00 | 0.00 | 0.00 | 41 | 1015.1 |
| 20260906033525 | 88 | 326 | 0.0 | 2.0 | 0.00 | 0.00 | 0.00 | 41 | 1015.0 |
| 20260906033019 | 88 | 326 | 1.0 | 3.0 | 0.00 | 0.00 | 0.00 | 40 | 1014.8 |
| 20260906032533 | 89 | 326 | 1.0 | 3.0 | 0.00 | 0.00 | 0.00 | 39 | 1014.8 |
| 20260906032027 | 89 | 326 | 1.0 | 3.0 | 0.00 | 0.00 | 0.00 | 39 | 1014.7 |
| 20260906031521 | 89 | 326 | 1.0 | 3.0 | 0.00 | 0.00 | 0.00 | 39 | 1014.8 |
| 20260906031020 | 89 | 326 | 1.0 | 3.0 | 0.00 | 0.00 | 0.00 | 38 | 1014.6 |
| 20260906030514 | 89 | 326 | 1.0 | 2.0 | 0.00 | 0.00 | 0.00 | 38 | 1014.6 |
| 20260906030041 | 90 | 326 | 1.0 | 3.0 | 0.00 | 0.00 | 0.00 | 38 | 1014.5 |
| 20260906025520 | 90 | 326 | 2.0 | 3.0 | 0.00 | 0.00 | 0.00 | 37 | 1014.4 |
| 20260906025014 | 90 | 325 | 2.0 | 3.0 | 0.00 | 0.00 | 0.00 | 37 | 1014.2 |
| 20260906024529 | 90 | 326 | 1.0 | 3.0 | 0.00 | 0.00 | 0.00 | 37 | 1014.3 |
| 20260906024023 | 90 | 326 | 2.0 | 4.0 | 0.00 | 0.00 | 0.00 | 37 | 1014.3 |
| 20260906023521 | 90 | 326 | 1.0 | 2.0 | 0.00 | 0.00 | 0.00 | 36 | 1014.3 |
| 20260906023016 | 90 | 326 | 1.0 | 2.0 | 0.00 | 0.00 | 0.00 | 36 | 1014.2 |
| 20260906022531 | 90 | 327 | 1.0 | 3.0 | 0.00 | 0.00 | 0.00 | 36 | 1014.1 |
| 20260906022026 | 90 | 327 | 1.0 | 3.0 | 0.00 | 0.00 | 0.00 | 36 | 1014.0 |
| 20260906021520 | 91 | 327 | 1.0 | 2.0 | 0.00 | 0.00 | 0.00 | 35 | 1014.0 |
| 20260906021015 | 90 | 327 | 1.0 | 3.0 | 0.00 | 0.00 | 0.00 | 35 | 1014.1 |
| 20260906020529 | 91 | 327 | 1.0 | 3.0 | 0.00 | 0.00 | 0.00 | 35 | 1014.0 |
| 20260906020035 | 91 | 327 | 1.0 | 4.0 | 0.00 | 0.00 | 0.00 | 35 | 1014.0 |
| 20260906015520 | 91 | 347 | 0.0 | 4.0 | 0.00 | 0.00 | 0.00 | 34 | 1014.0 |
| 20260906015014 | 92 | 348 | 1.0 | 4.0 | 0.00 | 0.00 | 0.00 | 34 | 1014.1 |
| 20260906014529 | 92 | 350 | 1.0 | 6.0 | 0.00 | 0.00 | 0.00 | 34 | 1014.0 |
| 20260906014023 | 92 | 351 | 2.0 | 6.0 | 0.00 | 0.00 | 0.00 | 33 | 1014.0 |
| 20260906013518 | 92 | 339 | 2.0 | 5.0 | 0.00 | 0.00 | 0.00 | 34 | 1014.0 |
| 20260906013032 | 92 | 329 | 2.0 | 5.0 | 0.00 | 0.00 | 0.00 | 34 | 1013.9 |
| 20260906012526 | 92 | 331 | 2.0 | 5.0 | 0.00 | 0.00 | 0.00 | 34 | 1013.9 |
| 20260906012025 | 93 | 298 | 2.0 | 9.0 | 0.00 | 0.00 | 0.00 | 33 | 1014.0 |
| 20260906011519 | 93 | 291 | 2.0 | 9.0 | 0.00 | 0.00 | 0.00 | 33 | 1014.1 |
| 20260906011013 | 93 | 296 | 2.0 | 7.0 | 0.00 | 0.00 | 0.00 | 34 | 1014.0 |
| 20260906010528 | 93 | 302 | 2.0 | 5.0 | 0.00 | 0.00 | 0.00 | 33 | 1014.0 |
| 20260906010034 | 94 | 310 | 2.0 | 11.0 | 0.00 | 0.00 | 0.00 | 33 | 1014.1 |
| 20260906005514 | 94 | 282 | 5.0 | 11.0 | 0.00 | 0.00 | 0.00 | 33 | 1014.1 |
| 20260906005028 | 94 | 6 | 3.0 | 10.0 | 0.00 | 0.00 | 0.00 | 33 | 1014.0 |
| 20260906004521 | 94 | 303 | 3.0 | 6.0 | 0.00 | 0.00 | 0.00 | 33 | 1013.9 |
| 20260906004018 | 94 | 339 | 3.0 | 8.0 | 0.00 | 0.00 | 0.00 | 33 | 1014.0 |
| 20260906003533 | 95 | 303 | 3.0 | 9.0 | 0.00 | 0.00 | 0.00 | 33 | 1013.9 |
| 20260906003026 | 95 | 311 | 2.0 | 9.0 | 0.00 | 0.00 | 0.00 | 33 | 1014.0 |
| 20260906002520 | 95 | 290 | 3.0 | 9.0 | 0.00 | 0.00 | 0.00 | 33 | 1013.9 |
| 20260906002014 | 95 | 344 | 2.0 | 7.0 | 0.00 | 0.00 | 0.00 | 33 | 1014.0 |
| 20260906001528 | 95 | 308 | 2.0 | 7.0 | 0.00 | 0.00 | 0.00 | 33 | 1013.8 |
| 20260906001023 | 96 | 344 | 3.0 | 8.0 | 0.00 | 0.00 | 0.00 | 32 | 1014.0 |
| 20260906000521 | 95 | 315 | 3.0 | 8.0 | 0.00 | 0.00 | 0.00 | 33 | 1014.0 |
| 20260906000028 | 96 | 355 | 2.0 | 10.0 | 0.00 | 0.00 | 0.00 | 33 | 1013.9 |
| 20260905235527 | 96 | 310 | 4.0 | 10.0 | 0.00 | 0.00 | 0.00 | 32 | 1013.9 |
| 20260905235021 | 96 | 289 | 3.0 | 10.0 | 0.00 | 0.00 | 0.00 | 32 | 1013.8 |
| 20260905234515 | 96 | 292 | 3.0 | 8.0 | 0.00 | 0.00 | 0.00 | 33 | 1013.9 |
| 20260905234029 | 96 | 282 | 4.0 | 8.0 | 0.00 | 0.00 | 0.00 | 32 | 1013.8 |
| 20260905233523 | 96 | 335 | 2.0 | 8.0 | 0.00 | 0.00 | 0.00 | 32 | 1013.8 |
| 20260905233018 | 97 | 311 | 2.0 | 13.0 | 0.00 | 0.00 | 0.00 | 32 | 1013.9 |
| 20260905232517 | 96 | 337 | 4.0 | 11.0 | 0.00 | 0.00 | 0.00 | 32 | 1013.9 |
| 20260905232031 | 96 | 337 | 2.0 | 10.0 | 0.00 | 0.00 | 0.00 | 31 | 1013.9 |
| 20260905231526 | 97 | 330 | 4.0 | 9.0 | 0.00 | 0.00 | 0.00 | 31 | 1013.9 |
| 20260905231020 | 96 | 331 | 4.0 | 10.0 | 0.00 | 0.00 | 0.00 | 32 | 1014.1 |
| 20260905230514 | 96 | 357 | 2.0 | 10.0 | 0.00 | 0.00 | 0.00 | 33 | 1014.1 |
| 20260905230040 | 97 | 319 | 2.0 | 10.0 | 0.00 | 0.00 | 0.00 | 32 | 1014.1 |
| 20260905225520 | 97 | 280 | 4.0 | 10.0 | 0.00 | 0.00 | 0.00 | 31 | 1014.1 |
| 20260905225019 | 97 | 336 | 3.0 | 11.0 | 0.00 | 0.00 | 0.00 | 31 | 1014.1 |
| 20260905224514 | 97 | 277 | 4.0 | 11.0 | 0.00 | 0.00 | 0.00 | 32 | 1014.0 |
| 20260905224029 | 96 | 335 | 4.0 | 7.0 | 0.00 | 0.00 | 0.00 | 31 | 1014.2 |
| 20260905223523 | 97 | 347 | 3.0 | 9.0 | 0.00 | 0.00 | 0.00 | 32 | 1014.2 |
| 20260905223018 | 97 | 354 | 3.0 | 12.0 | 0.00 | 0.00 | 0.00 | 32 | 1014.3 |
| 20260905222514 | 98 | 280 | 5.0 | 12.0 | 0.00 | 0.00 | 0.00 | 30 | 1014.2 |
| 20260905222029 | 98 | 296 | 3.0 | 10.0 | 0.00 | 0.00 | 0.00 | 30 | 1014.3 |
| 20260905221524 | 97 | 352 | 4.0 | 9.0 | 0.00 | 0.00 | 0.00 | 31 | 1014.4 |
| 20260905221024 | 98 | 298 | 5.0 | 9.0 | 0.00 | 0.00 | 0.00 | 30 | 1014.5 |
| 20260905220520 | 98 | 302 | 3.0 | 9.0 | 0.00 | 0.00 | 0.00 | 31 | 1014.4 |
| 20260905220028 | 98 | 281 | 4.0 | 10.0 | 0.00 | 0.00 | 0.00 | 31 | 1014.4 |
| 20260905215527 | 97 | 9 | 4.0 | 10.0 | 0.00 | 0.00 | 0.00 | 31 | 1014.5 |
| 20260905215023 | 98 | 307 | 3.0 | 12.0 | 0.00 | 0.00 | 0.00 | 30 | 1014.7 |
| 20260905214519 | 98 | 264 | 5.0 | 12.0 | 0.00 | 0.00 | 0.00 | 30 | 1014.7 |
| 20260905214014 | 97 | 4 | 3.0 | 10.0 | 0.00 | 0.00 | 0.00 | 32 | 1014.8 |
| 20260905213513 | 96 | 2 | 2.0 | 10.0 | 0.00 | 0.00 | 0.00 | 31 | 1014.7 |
| 20260905213027 | 98 | 342 | 2.0 | 7.0 | 0.00 | 0.00 | 0.00 | 31 | 1014.8 |
| 20260905212522 | 97 | 298 | 3.0 | 7.0 | 0.00 | 0.00 | 0.00 | 31 | 1014.8 |
| 20260905212017 | 97 | 13 | 3.0 | 7.0 | 0.00 | 0.00 | 0.00 | 30 | 1014.8 |
| 20260905211529 | 97 | 296 | 3.0 | 11.0 | 0.00 | 0.00 | 0.00 | 31 | 1014.9 |
| 20260905211024 | 97 | 284 | 3.0 | 11.0 | 0.00 | 0.00 | 0.00 | 31 | 1015.0 |
| 20260905210518 | 98 | 279 | 4.0 | 11.0 | 0.00 | 0.00 | 0.00 | 31 | 1015.1 |
| 20260905210028 | 96 | 325 | 3.0 | 11.0 | 0.00 | 0.00 | 0.00 | 31 | 1015.2 |
| 20260905205528 | 96 | 13 | 2.0 | 9.0 | 0.00 | 0.00 | 0.00 | 32 | 1015.3 |
| 20260905205022 | 96 | 308 | 4.0 | 9.0 | 0.00 | 0.00 | 0.00 | 32 | 1015.2 |
| 20260905204517 | 96 | 3 | 5.0 | 9.0 | 0.00 | 0.00 | 0.00 | 32 | 1015.3 |
| 20260905204031 | 95 | 16 | 4.0 | 9.0 | 0.00 | 0.00 | 0.00 | 32 | 1015.3 |
| 20260905203526 | 96 | 331 | 2.0 | 7.0 | 0.00 | 0.00 | 0.00 | 32 | 1015.5 |
| 20260905203020 | 98 | 306 | 2.0 | 9.0 | 0.00 | 0.00 | 0.00 | 32 | 1015.6 |
| 20260905202514 | 97 | 287 | 2.0 | 9.0 | 0.00 | 0.00 | 0.00 | 31 | 1015.8 |
| 20260905202032 | 96 | 319 | 3.0 | 7.0 | 0.00 | 0.00 | 0.00 | 32 | 1015.9 |
| 20260905201528 | 96 | 344 | 2.0 | 7.0 | 0.00 | 0.00 | 0.00 | 33 | 1015.9 |
| 20260905201022 | 96 | 260 | 2.0 | 8.0 | 0.00 | 0.00 | 0.00 | 34 | 1016.0 |
| 20260905200517 | 95 | 9 | 4.0 | 9.0 | 0.00 | 0.00 | 0.00 | 32 | 1016.0 |
| 20260905200043 | 96 | 299 | 3.0 | 9.0 | 0.00 | 0.00 | 0.00 | 33 | 1016.2 |
| 20260905195523 | 96 | 310 | 2.0 | 6.0 | 0.00 | 0.00 | 0.00 | 31 | 1016.2 |
| 20260905195017 | 96 | 347 | 1.0 | 8.0 | 0.00 | 0.00 | 0.00 | 33 | 1016.3 |
| 20260905194515 | 95 | 295 | 3.0 | 8.0 | 0.00 | 0.00 | 0.00 | 33 | 1016.4 |
| 20260905194029 | 96 | 287 | 2.0 | 8.0 | 0.00 | 0.00 | 0.00 | 33 | 1016.4 |
| 20260905193523 | 96 | 286 | 4.0 | 9.0 | 0.00 | 0.00 | 0.00 | 33 | 1016.5 |
| 20260905193017 | 95 | 7 | 4.0 | 9.0 | 0.00 | 0.00 | 0.00 | 32 | 1016.4 |
| 20260905192532 | 95 | 13 | 2.0 | 7.0 | 0.00 | 0.00 | 0.00 | 32 | 1016.5 |
| 20260905192026 | 95 | 338 | 2.0 | 6.0 | 0.00 | 0.00 | 0.00 | 33 | 1016.6 |
| 20260905191520 | 95 | 359 | 2.0 | 9.0 | 0.00 | 0.00 | 0.00 | 33 | 1016.6 |
| 20260905191015 | 94 | 258 | 3.0 | 9.0 | 0.00 | 0.00 | 0.00 | 35 | 1016.7 |
| 20260905190513 | 94 | 58 | 3.0 | 5.0 | 0.00 | 0.00 | 0.00 | 33 | 1016.8 |
| 20260905190040 | 94 | 308 | 1.0 | 3.0 | 0.00 | 0.00 | 0.00 | 34 | 1016.9 |
| 20260905185520 | 94 | 303 | 2.0 | 7.0 | 0.00 | 0.00 | 0.00 | 33 | 1017.1 |
| 20260905185014 | 95 | 300 | 2.0 | 7.0 | 0.00 | 0.00 | 0.00 | 34 | 1017.1 |
| 20260905184529 | 93 | 360 | 3.0 | 7.0 | 0.00 | 0.00 | 0.00 | 34 | 1017.1 |
| 20260905184023 | 94 | 23 | 2.0 | 7.0 | 0.00 | 0.00 | 0.00 | 34 | 1017.2 |
| 20260905183518 | 95 | 21 | 2.0 | 7.0 | 0.00 | 0.00 | 0.00 | 32 | 1017.3 |
| 20260905183016 | 94 | 299 | 3.0 | 7.0 | 0.00 | 0.00 | 0.00 | 34 | 1017.3 |
| 20260905182531 | 94 | 287 | 3.0 | 9.0 | 0.00 | 0.00 | 0.00 | 35 | 1017.3 |
| 20260905182027 | 93 | 356 | 4.0 | 10.0 | 0.00 | 0.00 | 0.00 | 35 | 1017.4 |
| 20260905181521 | 92 | 360 | 5.0 | 10.0 | 0.00 | 0.00 | 0.00 | 36 | 1017.5 |
| 20260905181018 | 93 | 305 | 2.0 | 9.0 | 0.00 | 0.00 | 0.00 | 35 | 1017.5 |
| 20260905180514 | 94 | 342 | 2.0 | 9.0 | 0.00 | 0.00 | 0.00 | 35 | 1017.5 |
| 20260905180040 | 94 | 290 | 2.0 | 8.0 | 0.00 | 0.00 | 0.00 | 36 | 1017.5 |
| 20260905175521 | 93 | 291 | 4.0 | 8.0 | 0.00 | 0.00 | 0.00 | 35 | 1017.6 |
| 20260905175020 | 92 | 355 | 3.0 | 7.0 | 0.00 | 0.00 | 0.00 | 36 | 1017.5 |
| 20260905174516 | 92 | 336 | 3.0 | 7.0 | 0.00 | 0.00 | 0.00 | 37 | 1017.5 |
| 20260905174031 | 94 | 352 | 2.0 | 7.0 | 0.00 | 0.00 | 0.00 | 36 | 1017.7 |
| 20260905173526 | 93 | 286 | 2.0 | 7.0 | 0.00 | 0.00 | 0.00 | 38 | 1017.6 |
| 20260905173022 | 94 | 334 | 1.0 | 3.0 | 0.00 | 0.00 | 0.00 | 38 | 1017.7 |
| 20260905172517 | 92 | 335 | 2.0 | 4.0 | 0.00 | 0.00 | 0.00 | 38 | 1017.6 |
| 20260905172013 | 92 | 294 | 1.0 | 8.0 | 0.00 | 0.00 | 0.00 | 41 | 1017.7 |
| 20260905171513 | 91 | 284 | 2.0 | 8.0 | 0.00 | 0.00 | 0.00 | 39 | 1017.9 |
| 20260905171029 | 91 | 2 | 1.0 | 4.0 | 0.00 | 0.00 | 0.00 | 42 | 1017.8 |
| 20260905170525 | 89 | 2 | 1.0 | 4.0 | 0.00 | 0.00 | 0.00 | 43 | 1017.8 |
| 20260905170032 | 90 | 24 | 2.0 | 4.0 | 0.00 | 0.00 | 0.00 | 44 | 1017.8 |
| 20260905165513 | 90 | 54 | 2.0 | 4.0 | 0.00 | 0.00 | 0.00 | 45 | 1018.0 |
| 20260905165028 | 89 | 55 | 2.0 | 3.0 | 0.00 | 0.00 | 0.00 | 47 | 1017.9 |
| 20260905164524 | 88 | 56 | 2.0 | 5.0 | 0.00 | 0.00 | 0.00 | 46 | 1017.9 |
| 20260905164024 | 87 | 58 | 2.0 | 5.0 | 0.00 | 0.00 | 0.00 | 47 | 1017.9 |
| 20260905163520 | 87 | 61 | 3.0 | 6.0 | 0.00 | 0.00 | 0.00 | 49 | 1017.7 |
| 20260905163014 | 88 | 62 | 2.0 | 4.0 | 0.00 | 0.00 | 0.00 | 49 | 1017.8 |
| 20260905162529 | 87 | 63 | 2.0 | 4.0 | 0.00 | 0.00 | 0.00 | 52 | 1017.8 |
| 20260905162025 | 87 | 63 | 2.0 | 3.0 | 0.00 | 0.00 | 0.00 | 52 | 1017.9 |
| 20260905161521 | 88 | 62 | 1.0 | 2.0 | 0.00 | 0.00 | 0.00 | 50 | 1017.9 |
| 20260905161017 | 86 | 63 | 1.0 | 3.0 | 0.00 | 0.00 | 0.00 | 53 | 1017.9 |
| 20260905160516 | 86 | 63 | 1.0 | 3.0 | 0.00 | 0.00 | 0.00 | 53 | 1017.9 |
| 20260905160044 | 85 | 63 | 1.0 | 3.0 | 0.00 | 0.00 | 0.00 | 53 | 1018.0 |
| 20260905155525 | 85 | 63 | 2.0 | 3.0 | 0.00 | 0.00 | 0.00 | 52 | 1018.0 |
| 20260905155021 | 84 | 63 | 2.0 | 3.0 | 0.00 | 0.00 | 0.00 | 57 | 1017.9 |
| 20260905154518 | 84 | 62 | 1.0 | 3.0 | 0.00 | 0.00 | 0.00 | 57 | 1017.9 |
| 20260905154013 | 84 | 62 | 1.0 | 3.0 | 0.00 | 0.00 | 0.00 | 59 | 1017.9 |
| 20260905153529 | 83 | 63 | 1.0 | 3.0 | 0.00 | 0.00 | 0.00 | 60 | 1017.9 |
| 20260905153024 | 83 | 62 | 1.0 | 4.0 | 0.00 | 0.00 | 0.00 | 59 | 1018.0 |
| 20260905152523 | 83 | 63 | 1.0 | 4.0 | 0.00 | 0.00 | 0.00 | 61 | 1018.0 |
| 20260905152019 | 82 | 61 | 2.0 | 3.0 | 0.00 | 0.00 | 0.00 | 61 | 1018.0 |
| 20260905151515 | 83 | 61 | 1.0 | 3.0 | 0.00 | 0.00 | 0.00 | 61 | 1018.0 |
| 20260905151031 | 82 | 61 | 1.0 | 4.0 | 0.00 | 0.00 | 0.00 | 63 | 1017.9 |
| 20260905150526 | 81 | 61 | 1.0 | 6.0 | 0.00 | 0.00 | 0.00 | 64 | 1017.9 |
| 20260905150032 | 80 | 62 | 2.0 | 4.0 | 0.00 | 0.00 | 0.00 | 64 | 1017.9 |
| 20260905145512 | 79 | 62 | 2.0 | 6.0 | 0.00 | 0.00 | 0.00 | 65 | 1017.8 |
| 20260905145031 | 79 | 61 | 2.0 | 6.0 | 0.00 | 0.00 | 0.00 | 66 | 1017.8 |
| 20260905144526 | 80 | 69 | 3.0 | 6.0 | 0.00 | 0.00 | 0.00 | 64 | 1017.8 |
| 20260905144020 | 79 | 68 | 2.0 | 6.0 | 0.00 | 0.00 | 0.00 | 67 | 1017.9 |
| 20260905143516 | 79 | 68 | 3.0 | 6.0 | 0.00 | 0.00 | 0.00 | 66 | 1017.8 |
| 20260905143012 | 79 | 68 | 2.0 | 3.0 | 0.00 | 0.00 | 0.00 | 66 | 1017.8 |
| 20260905142527 | 78 | 68 | 1.0 | 4.0 | 0.00 | 0.00 | 0.00 | 67 | 1017.7 |
| 20260905142023 | 78 | 67 | 2.0 | 5.0 | 0.00 | 0.00 | 0.00 | 68 | 1017.6 |
| 20260905141522 | 78 | 56 | 3.0 | 5.0 | 0.00 | 0.00 | 0.00 | 69 | 1017.5 |
| 20260905141017 | 78 | 55 | 3.0 | 5.0 | 0.00 | 0.00 | 0.00 | 69 | 1017.5 |
| 20260905140531 | 77 | 54 | 3.0 | 4.0 | 0.00 | 0.00 | 0.00 | 70 | 1017.3 |
| 20260905140039 | 77 | 54 | 2.0 | 3.0 | 0.00 | 0.00 | 0.00 | 69 | 1017.5 |
| 20260905135519 | 77 | 54 | 1.0 | 2.0 | 0.00 | 0.00 | 0.00 | 70 | 1017.5 |
| 20260905135014 | 76 | 54 | 1.0 | 2.0 | 0.00 | 0.00 | 0.00 | 71 | 1017.3 |
| 20260905134529 | 76 | 54 | 1.0 | 3.0 | 0.00 | 0.00 | 0.00 | 71 | 1017.2 |
| 20260905134024 | 76 | 54 | 1.0 | 3.0 | 0.00 | 0.00 | 0.00 | 71 | 1017.1 |
| 20260905133523 | 76 | 54 | 1.0 | 2.0 | 0.00 | 0.00 | 0.00 | 71 | 1017.2 |
| 20260905132514 | 75 | 54 | 0.0 | 2.0 | 0.00 | 0.00 | 0.00 | 74 | 1016.9 |
| 20260905132031 | 74 | 54 | 0.0 | 1.0 | 0.00 | 0.00 | 0.00 | 74 | 1016.9 |
| 20260905131526 | 74 | 54 | 0.0 | 2.0 | 0.00 | 0.00 | 0.00 | 75 | 1016.8 |
| 20260905131021 | 74 | 54 | 1.0 | 2.0 | 0.00 | 0.00 | 0.00 | 74 | 1016.7 |
| 20260905130518 | 74 | 54 | 1.0 | 2.0 | 0.00 | 0.00 | 0.00 | 74 | 1016.6 |
| 20260905130029 | 74 | 54 | 1.0 | 2.0 | 0.00 | 0.00 | 0.00 | 74 | 1016.6 |
| 20260905125531 | 74 | 54 | 1.0 | 2.0 | 0.00 | 0.00 | 0.00 | 73 | 1016.5 |
| 20260905125026 | 74 | 54 | 1.0 | 2.0 | 0.00 | 0.00 | 0.00 | 74 | 1016.4 |
| 20260905124521 | 74 | 54 | 0.0 | 1.0 | 0.00 | 0.00 | 0.00 | 73 | 1016.5 |
| 20260905124017 | 75 | 54 | 0.0 | 2.0 | 0.00 | 0.00 | 0.00 | 73 | 1016.4 |
| 20260905123531 | 74 | 54 | 1.0 | 2.0 | 0.00 | 0.00 | 0.00 | 74 | 1016.4 |
| 20260905123028 | 74 | 54 | 0.0 | 2.0 | 0.00 | 0.00 | 0.00 | 72 | 1016.5 |
| 20260905122527 | 75 | 54 | 0.0 | 2.0 | 0.00 | 0.00 | 0.00 | 72 | 1016.4 |
| 20260905122022 | 75 | 54 | 1.0 | 2.0 | 0.00 | 0.00 | 0.00 | 73 | 1016.3 |
| 20260905121517 | 75 | 54 | 1.0 | 2.0 | 0.00 | 0.00 | 0.00 | 72 | 1016.3 |
| 20260905121013 | 75 | 54 | 0.0 | 1.0 | 0.00 | 0.00 | 0.00 | 72 | 1016.3 |
| 20260905120528 | 74 | 54 | 0.0 | 2.0 | 0.00 | 0.00 | 0.00 | 72 | 1016.3 |
| 20260905120035 | 75 | 54 | 0.0 | 3.0 | 0.00 | 0.00 | 0.00 | 71 | 1016.3 |
| 20260905115515 | 75 | 54 | 1.0 | 3.0 | 0.00 | 0.00 | 0.00 | 70 | 1016.2 |
| 20260905115014 | 75 | 54 | 1.0 | 2.0 | 0.00 | 0.00 | 0.00 | 70 | 1016.3 |
| 20260905114530 | 75 | 54 | 0.0 | 2.0 | 0.00 | 0.00 | 0.00 | 70 | 1016.2 |
| 20260905114025 | 75 | 54 | 1.0 | 2.0 | 0.00 | 0.00 | 0.00 | 70 | 1016.3 |
| 20260905113522 | 75 | 54 | 1.0 | 2.0 | 0.00 | 0.00 | 0.00 | 71 | 1016.2 |
| 20260905113017 | 75 | 54 | 1.0 | 3.0 | 0.00 | 0.00 | 0.00 | 71 | 1016.3 |
| 20260905112513 | 76 | 54 | 1.0 | 3.0 | 0.00 | 0.00 | 0.00 | 70 | 1016.2 |
| 20260905112028 | 76 | 54 | 1.0 | 3.0 | 0.00 | 0.00 | 0.00 | 69 | 1016.2 |
| 20260905111525 | 76 | 54 | 1.0 | 3.0 | 0.00 | 0.00 | 0.00 | 69 | 1016.2 |
| 20260905111025 | 76 | 54 | 1.0 | 3.0 | 0.00 | 0.00 | 0.00 | 69 | 1016.3 |
| 20260905110521 | 76 | 54 | 2.0 | 4.0 | 0.00 | 0.00 | 0.00 | 69 | 1016.3 |
| 20260905110029 | 76 | 54 | 3.0 | 4.0 | 0.00 | 0.00 | 0.00 | 68 | 1016.2 |
| 20260905105529 | 76 | 54 | 2.0 | 3.0 | 0.00 | 0.00 | 0.00 | 69 | 1016.3 |
| 20260905105025 | 76 | 54 | 1.0 | 2.0 | 0.00 | 0.00 | 0.00 | 69 | 1016.2 |
| 20260905104521 | 76 | 54 | 1.0 | 2.0 | 0.00 | 0.00 | 0.00 | 69 | 1016.3 |
| 20260905104016 | 76 | 54 | 1.0 | 2.0 | 0.00 | 0.00 | 0.00 | 68 | 1016.2 |
| 20260905103515 | 76 | 54 | 1.0 | 2.0 | 0.00 | 0.00 | 0.00 | 68 | 1016.3 |
| 20260905103030 | 76 | 54 | 0.0 | 1.0 | 0.00 | 0.00 | 0.00 | 69 | 1016.2 |
| 20260905102526 | 76 | 54 | 0.0 | 2.0 | 0.00 | 0.00 | 0.00 | 68 | 1016.2 |
| 20260905102022 | 77 | 54 | 0.0 | 2.0 | 0.00 | 0.00 | 0.00 | 67 | 1016.3 |
| 20260905101517 | 77 | 54 | 1.0 | 2.0 | 0.00 | 0.00 | 0.00 | 67 | 1016.3 |
| 20260905101031 | 77 | 54 | 1.0 | 2.0 | 0.00 | 0.00 | 0.00 | 67 | 1016.2 |
| 20260905100527 | 77 | 54 | 1.0 | 2.0 | 0.00 | 0.00 | 0.00 | 67 | 1016.1 |
| 20260905100039 | 77 | 54 | 0.0 | 1.0 | 0.00 | 0.00 | 0.00 | 67 | 1016.0 |
| 20260905095519 | 77 | 54 | 0.0 | 1.0 | 0.00 | 0.00 | 0.00 | 67 | 1016.2 |
| 20260905095015 | 77 | 54 | 0.0 | 1.0 | 0.00 | 0.00 | 0.00 | 67 | 1016.1 |
| 20260905094529 | 77 | 54 | 0.0 | 1.0 | 0.00 | 0.00 | 0.00 | 67 | 1016.2 |
| 20260905094023 | 77 | 54 | 0.0 | 2.0 | 0.00 | 0.00 | 0.00 | 66 | 1016.2 |
| 20260905093517 | 77 | 54 | 0.0 | 2.0 | 0.00 | 0.00 | 0.00 | 66 | 1016.2 |
| 20260905093012 | 77 | 54 | 1.0 | 3.0 | 0.00 | 0.00 | 0.00 | 65 | 1016.0 |
| 20260905092527 | 78 | 54 | 1.0 | 3.0 | 0.00 | 0.00 | 0.00 | 65 | 1016.1 |
| 20260905092026 | 78 | 54 | 1.0 | 3.0 | 0.00 | 0.00 | 0.00 | 65 | 1016.2 |
| 20260905091520 | 78 | 54 | 1.0 | 2.0 | 0.00 | 0.00 | 0.00 | 65 | 1016.2 |
| 20260905091014 | 78 | 54 | 0.0 | 1.0 | 0.00 | 0.00 | 0.00 | 65 | 1016.2 |
| 20260905090528 | 77 | 54 | 0.0 | 2.0 | 0.00 | 0.00 | 0.00 | 67 | 1016.1 |
| 20260905090034 | 78 | 54 | 1.0 | 2.0 | 0.00 | 0.00 | 0.00 | 66 | 1016.2 |
| 20260905085514 | 78 | 54 | 1.0 | 2.0 | 0.00 | 0.00 | 0.00 | 65 | 1016.2 |
| 20260905085029 | 78 | 54 | 1.0 | 2.0 | 0.00 | 0.00 | 0.00 | 65 | 1016.2 |
| 20260905084527 | 78 | 54 | 0.0 | 1.0 | 0.00 | 0.00 | 0.00 | 65 | 1016.2 |
| 20260905084022 | 78 | 54 | 0.0 | 2.0 | 0.00 | 0.00 | 0.00 | 65 | 1016.2 |
| 20260905083516 | 78 | 54 | 1.0 | 2.0 | 0.00 | 0.00 | 0.00 | 64 | 1016.3 |
| 20260905083031 | 78 | 54 | 1.0 | 1.0 | 0.00 | 0.00 | 0.00 | 63 | 1016.2 |
| 20260905082526 | 78 | 54 | 0.0 | 2.0 | 0.00 | 0.00 | 0.00 | 63 | 1016.3 |
| 20260905082021 | 79 | 54 | 2.0 | 2.0 | 0.00 | 0.00 | 0.00 | 62 | 1016.3 |
| 20260905081516 | 79 | 54 | 0.0 | 0.0 | 0.00 | 0.00 | 0.00 | 60 | 1016.4 |
| 20260905081015 | 79 | 54 | 0.0 | 0.0 | 0.00 | 0.00 | 0.00 | 60 | 1016.4 |
| 20260905080530 | 80 | 54 | 0.0 | 0.0 | 0.00 | 0.00 | 0.00 | 60 | 1016.5 |
| 20260905080036 | 80 | 54 | 0.0 | 2.0 | 0.00 | 0.00 | 0.00 | 59 | 1016.5 |
| 20260905075516 | 80 | 54 | 0.0 | 3.0 | 0.00 | 0.00 | 0.00 | 58 | 1016.5 |
| 20260905075030 | 81 | 54 | 1.0 | 3.0 | 0.00 | 0.00 | 0.00 | 57 | 1016.5 |
| 20260905074524 | 81 | 54 | 2.0 | 2.0 | 0.00 | 0.00 | 0.00 | 58 | 1016.5 |
| 20260905074018 | 80 | 54 | 1.0 | 2.0 | 0.00 | 0.00 | 0.00 | 58 | 1016.5 |
| 20260905073512 | 80 | 54 | 0.0 | 2.0 | 0.00 | 0.00 | 0.00 | 59 | 1016.5 |
| 20260905073031 | 80 | 54 | 0.0 | 2.0 | 0.00 | 0.00 | 0.00 | 58 | 1016.4 |
| 20260905072524 | 81 | 54 | 1.0 | 2.0 | 0.00 | 0.00 | 0.00 | 57 | 1016.4 |
| 20260905072019 | 81 | 54 | 1.0 | 2.0 | 0.00 | 0.00 | 0.00 | 57 | 1016.3 |
| 20260905071514 | 81 | 54 | 0.0 | 2.0 | 0.00 | 0.00 | 0.00 | 56 | 1016.3 |
| 20260905071029 | 81 | 54 | 0.0 | 3.0 | 0.00 | 0.00 | 0.00 | 56 | 1016.3 |
| 20260905070523 | 82 | 54 | 2.0 | 4.0 | 0.00 | 0.00 | 0.00 | 56 | 1016.3 |
| 20260905070030 | 81 | 54 | 2.0 | 4.0 | 0.00 | 0.00 | 0.00 | 56 | 1016.3 |
| 20260905065514 | 82 | 54 | 1.0 | 3.0 | 0.00 | 0.00 | 0.00 | 57 | 1016.3 |
| 20260905065029 | 82 | 54 | 1.0 | 2.0 | 0.00 | 0.00 | 0.00 | 56 | 1016.2 |
| 20260905064523 | 82 | 54 | 1.0 | 1.0 | 0.00 | 0.00 | 0.00 | 56 | 1016.2 |
| 20260905064017 | 82 | 54 | 0.0 | 4.0 | 0.00 | 0.00 | 0.00 | 55 | 1016.2 |
| 20260905063511 | 83 | 54 | 2.0 | 4.0 | 0.00 | 0.00 | 0.00 | 55 | 1016.0 |
| 20260905063026 | 83 | 57 | 2.0 | 3.0 | 0.00 | 0.00 | 0.00 | 55 | 1016.2 |
| 20260905062520 | 83 | 57 | 1.0 | 4.0 | 0.00 | 0.00 | 0.00 | 53 | 1016.1 |
| 20260905062015 | 83 | 57 | 2.0 | 4.0 | 0.00 | 0.00 | 0.00 | 54 | 1016.1 |
| 20260905061513 | 84 | 56 | 2.0 | 4.0 | 0.00 | 0.00 | 0.00 | 53 | 1016.1 |
| 20260905061029 | 84 | 56 | 2.0 | 4.0 | 0.00 | 0.00 | 0.00 | 53 | 1016.0 |
| 20260905060523 | 83 | 56 | 2.0 | 2.0 | 0.00 | 0.00 | 0.00 | 54 | 1016.1 |
| 20260905060029 | 84 | 56 | 0.0 | 5.0 | 0.00 | 0.00 | 0.00 | 53 | 1016.0 |
| 20260905055529 | 84 | 56 | 1.0 | 5.0 | 0.00 | 0.00 | 0.00 | 52 | 1015.9 |
| 20260905055023 | 84 | 53 | 2.0 | 7.0 | 0.00 | 0.00 | 0.00 | 52 | 1015.9 |
| 20260905054517 | 85 | 52 | 3.0 | 7.0 | 0.00 | 0.00 | 0.00 | 50 | 1015.9 |
| 20260905054016 | 85 | 51 | 3.0 | 7.0 | 0.00 | 0.00 | 0.00 | 50 | 1016.1 |
| 20260905053530 | 85 | 35 | 4.0 | 5.0 | 0.00 | 0.00 | 0.00 | 47 | 1015.9 |
| 20260905053024 | 85 | 269 | 2.0 | 4.0 | 0.00 | 0.00 | 0.00 | 47 | 1015.9 |
| 20260905052518 | 85 | 269 | 2.0 | 4.0 | 0.00 | 0.00 | 0.00 | 47 | 1015.8 |
| 20260905052012 | 85 | 269 | 1.0 | 2.0 | 0.00 | 0.00 | 0.00 | 46 | 1015.8 |